Fort Drum, NY

10:02 AM EST on November 17, 2019 (GMT -0500)
Wheeler-Sack Army Air Field

Weather History for KGTB - October, 2019

Change the Weather History Date:

Saturday, October 19, 2019

  Actual Average Record
Temperature  
Mean Temperature 40 °F -  
Max Temperature 52 °F 52 °F 76 °F (2007)
Min Temperature 28 °F 35 °F 20 °F (2015)
Degree Days  
Heating Degree Days 26    
Moisture  
Dew Point 33 °F    
Average Humidity 76    
Maximum Humidity 93    
Minimum Humidity 48    
Precipitation  
Precipitation 0.00 in - - ()
Sea Level Pressure  
Sea Level Pressure 30.06 in    
Wind  
Wind Speed 3 mph (ESE)    
Max Wind Speed 8 mph    
Max Gust Speed -    
Visibility 10 miles    
Events      
Averages and records for this station are not official NWS values.
T = Trace of Precipitation, MM = Missing Value Source: NWS Daily Summary

Daily Weather History Graph

Daily Weather History Graph

Search for Another Location

Airport or City:

Astronomy

Oct. 19, 2019 Rise Set
Actual Time 7:22 AM EDT 6:12 PM EDT
Civil Twilight 6:52 AM EDT 6:42 PM EDT
Nautical Twilight 6:19 AM EDT 7:15 PM EDT
Astronomical Twilight 5:45 AM EDT 7:48 PM EDT
Moon 10:10 PM EDT (10/19) 1:01 PM EDT (10/19)
Length of Visible Light 11h 49m
Length of Day
10h 50m
Waning Gibbous, 70% of the Moon is Illuminated
Oct 19
Waning Gibbous
Oct 21
Last Quarter
Oct 27
New
Nov 4
First Quarter
Nov 12
Full

Hourly Weather History & Observations

Time (EDT) Temp. Windchill Dew Point Humidity Pressure Visibility Wind Dir Wind Speed Gust Speed Precip Events Conditions
12:56 AM 35.2 °F 32.4 °F 32.9 °F 91% 30.04 in 10.0 mi SW 3.5 mph - N/A   Clear
1:56 AM 34.5 °F 30.4 °F 32.4 °F 92% 30.05 in 10.0 mi SSW 4.6 mph - N/A   Clear
2:56 AM 32.2 °F 28.9 °F 30.4 °F 93% 30.05 in 10.0 mi SSW 3.5 mph - N/A   Clear
3:56 AM 31.5 °F - 29.5 °F 92% 30.06 in 10.0 mi Calm Calm - N/A   Clear
4:56 AM 33.8 °F 30.8 °F 31.5 °F 91% 30.06 in 10.0 mi NW 3.5 mph - N/A   Clear
5:56 AM 30.2 °F - 27.7 °F 90% 30.06 in 10.0 mi Calm Calm - N/A   Clear
6:56 AM 28.9 °F 25.2 °F 27.1 °F 93% 30.09 in 10.0 mi SSW 3.5 mph - N/A   Clear
7:56 AM 29.8 °F - 28.0 °F 93% 30.10 in 10.0 mi Calm Calm - N/A   Clear
8:56 AM 37.0 °F - 34.2 °F 89% 30.11 in 10.0 mi Calm Calm - N/A   Clear
9:56 AM 41.4 °F 38.4 °F 34.0 °F 75% 30.11 in 10.0 mi East 4.6 mph - N/A   Clear
10:10 AM 42.8 °F 41.1 °F 33.8 °F 70% 30.11 in 10.0 mi East 3.5 mph - N/A   Clear
10:56 AM 43.9 °F - 33.6 °F 67% 30.11 in 10.0 mi Calm Calm - N/A   Clear
11:56 AM 46.4 °F 45.2 °F 32.9 °F 59% 30.11 in 10.0 mi North 3.5 mph - N/A   Partly Cloudy
12:56 PM 47.5 °F - 33.4 °F 58% 30.09 in 10.0 mi Calm Calm - N/A   Clear
1:56 PM 49.5 °F - 34.0 °F 55% 30.07 in 10.0 mi NE 3.5 mph - N/A   Clear
2:56 PM 50.7 °F - 34.2 °F 53% 30.05 in 10.0 mi Calm Calm - N/A   Clear
3:56 PM 51.6 °F - 33.6 °F 50% 30.04 in 10.0 mi Calm Calm - N/A   Clear
4:56 PM 51.6 °F - 32.5 °F 48% 30.04 in 10.0 mi Calm Calm - N/A   Clear
5:56 PM 48.9 °F - 35.2 °F 59% 30.03 in 10.0 mi NNE 3.5 mph - N/A   Clear
6:56 PM 44.6 °F - 34.7 °F 68% 30.02 in 10.0 mi Calm Calm - N/A   Clear
7:56 PM 43.0 °F 40.3 °F 34.2 °F 71% 30.02 in 10.0 mi East 4.6 mph - N/A   Clear
8:56 PM 38.1 °F - 33.1 °F 82% 30.02 in 10.0 mi Calm Calm - N/A   Clear
9:56 PM 38.3 °F 33.2 °F 34.5 °F 86% 30.01 in 10.0 mi ESE 6.9 mph - N/A   Clear
10:56 PM 38.5 °F 32.7 °F 33.1 °F 81% 30.00 in 10.0 mi ESE 8.1 mph - N/A   Clear
11:56 PM 37.9 °F 32.7 °F 34.7 °F 88% 30.00 in 10.0 mi SE 6.9 mph - N/A   Clear